Location: Ferintosh
(52.7647°N, 112.9692°W)
Time: 14:54:07
(UTC+00:00)

Transit 2A Rocket - Pass Details

Date: 25 May 2024
Orbit: 583 x 910 km, 66.7° (Epoch: 14 June)

Event Time Altitude Azimuth Distance (km) Brightness Sun altitude
Rises 11:19:20 0° 218° (SW) 3,016 - -0.9°
Exits shadow 11:19:26 - 218° (SW) 2,975 7.4 -0.9°
Reaches altitude 10° 11:21:32 10° 219° (SW) 2,152 6.7 -0.7°
Maximum altitude 11:26:28 88° 310° (NW) 754 5.1 -0.1°
Drops below altitude 10° 11:31:57 10° 40° (NE) 2,387 9.4 0.6°
Sets 11:34:30 0° 41° (NE) 3,372 10.3 0.9°
